CAPE
2130 2260 2132 2089 1917 1490 1314 1542 1557 1897 2329 2122 2289 2515 2490 2556 2963 2487 2428 2889 2300 3644 4611 5097 4511 3827 4420 4603 4055 3589 3744 3264 2634 2122 2328 2346 2174 1753 1322 1336 1589 1505
1936 2150 2340 1876 2108 1903 1623 1510 1558 1325 1831 2045 1795 1948 1866 2068 2346 2645 2792 3040 2823 2686 4163 4400 4679 4256 3921 3899 4243 3375 3907 3648 2910 2185 2304 2445 2226 1588 1323 1425 1229 1473
2121 1950 1997 1812 1660 2002 1358 1524 1540 1399 1346 1629 1747 2027 1989 2044 2357 2493 2545 2552 2838 2351 2787 3952 4605 3963 4388 4180 5009 3787 4000 3883 2986 2520 2439 2418 2039 1814 1717 1145 1317 1410
2473 1864 1505 1421 1156 1435 1344 1368 1367 1574 880 1386 1359 1760 2052 1608 1948 2284 2620 2612 2752 2720 2568 2780 3177 3244 3840 3969 5390 3599 3639 4197 3322 3213 2895 2689 2561 2202 1808 1564 1420 1131
2761 2070 1480 1239 1018 1123 1340 1244 991 1139 1062 1019 1152 1232 1836 1758 1952 2027 2473 2778 2812 2620 2640 2601 2700 3292 3814 3693 4933 3593 3082 3355 2948 3666 4014 3208 2915 2396 2056 1689 1602 1580
3059 2581 1912 1487 1200 1089 1044 1123 1172 825 946 755 1054 932 1169 1866 1841 1839 2142 2231 2387 2192 1959 2137 2441 2640 1990 3400 4386 3350 3130 3041 3152 3190 3586 3517 3244 2780 1723 1656 1793 1806
3083 2887 2303 1588 1356 1171 1058 1126 1210 1078 871 736 949 916 931 1438 1996 1757 1784 1918 1758 1734 1534 1820 2156 2285 2283 2820 3210 3432 3339 2906 3154 3345 3354 3366 3148 3176 2422 2071 1887 2038
2724 2946 2692 1952 1406 1148 1208 920 1222 1380 1186 973 702 1103 1067 1065 1736 1753 1680 1753 1658 1684 1653 1404 2142 2391 1897 2190 2837 3141 3203 2757 2969 3728 3965 3338 3116 3166 3169 2770 2397 2503
2570 2691 2748 2304 1550 1093 981 810 1135 1547 1385 1136 805 788 1153 1143 1289 1443 1525 1769 1711 1707 1901 1821 2116 2309 2392 2276 2381 2921 3188 2831 2353 2420 3031 3061 3192 3154 3085 3125 2740 2684
2933 2192 2057 1970 1617 1157 897 802 704 1129 1526 1304 932 492 700 1258 1098 1106 1196 1757 1894 1818 1900 2007 2084 2218 2424 2406 2375 2520 2882 3106 2851 2786 2524 2536 2657 2518 2452 2483 2642 2792
2676 2292 1658 1687 1418 913 796 723 551 347 962 1231 1037 424 252 809 1041 1180 1506 1681 1721 1923 1975 2098 2171 2303 2506 2304 2176 2218 2559 2638 2786 2736 2747 2756 2710 2505 2306 2314 2351 2420
2749 2351 1750 1644 1409 1097 661 432 450 234 241 934 1057 624 193 208 873 945 948 1386 1663 1979 1999 2138 2319 2474 2590 2510 2084 1968 2150 2262 2174 2211 2155 2230 2398 2399 2410 2303 2204 2406
2407 2562 2123 1507 1488 1306 842 420 367 332 126 168 677 808 374 122 205 923 926 973 1570 1844 1602 1699 2272 2386 2846 2797 2453 1751 1634 1817 1404 1421 1520 1552 1882 1876 1885 2040 2021 2095
2350 2570 2582 2120 1551 1810 1483 831 384 246 331 168 258 589 671 300 87 237 972 927 1042 1510 1434 1171 1758 2203 2419 2689 2699 2072 1488 1274 1411 1132 1109 1312 1275 1433 1411 1304 1526 1731
2403 2316 2553 2435 2153 2041 1913 1543 1000 806 785 572 318 253 461 504 301 114 366 1074 1058 1159 1275 916 817 1544 2012 2344 2719 2732 1846 1137 1243 1402 1119 981 955 924 1093 1096 1044 1040
2870 2712 2730 2630 2402 2220 2356 2294 1923 1364 593 679 503 451 564 663 586 346 203 576 1144 1289 1227 999 506 652 1732 1597 2055 2588 2442 1247 1047 1493 1568 1149 1039 1004 801 707 750 751
2603 2708 2626 2622 2690 2458 2341 2506 2402 2009 1531 1786 1256 912 1164 1375 1211 547 301 262 575 1182 1454 1284 813 384 744 1378 1501 1904 2154 1928 1002 1112 1601 1624 1191 1185 961 552 562 603
1980 2763 3088 2713 2639 2738 2579 2580 2502 2456 2328 1978 1682 1410 2119 1319 1028 1075 1257 519 267 413 899 1430 1309 711 57 889 1268 1498 1800 2132 1192 634 668 1251 1446 1092 1049 886 560 363
1524 2070 2650 2863 2868 2765 2881 2717 2748 2619 2447 2184 1780 1835 1857 2243 2366 1615 1552 1487 943 739 401 624 1293 1068 105 0 1092 1339 1498 1615 764 570 294 355 818 1198 1046 906 765 556
1807 1656 1838 2568 2850 2688 2684 2485 2587 2754 2503 2236 2012 1921 2077 2163 2088 2350 2165 2455 1952 1535 1374 760 976 1164 1032 512 522 1205 1412 1610 1215 187 268 354 408 520 702 919 920 734
1228 1370 1400 1532 1635 2067 2476 2550 2446 2388 2440 2475 1758 1922 1986 2243 2334 2267 2415 2447 2227 2052 1781 1323 1105 1030 1162 1139 1034 997 1306 1349 1655 464 35 75 281 402 1044 750 1511 1027
852 1084 1439 1509 1476 1404 1677 2147 1977 2449 2420 2466 2198 1658 1682 1906 2603 2333 2337 2486 2471 2334 2018 1843 1397 967 966 1176 1220 1186 1091 1153 2359 1594 584 153 58 343 514 1266 1148 1158
624 671 974 1313 1505 1686 1566 1273 1264 1466 1737 1859 2326 2117 1956 2007 1680 1411 2627 2677 2452 2544 2490 2310 1977 1683 1121 1049 1129 1173 1173 1388 2351 2275 1723 1300 776 807 663 464 657 1284
668 680 692 862 904 1210 1140 1277 1497 1157 1119 1225 1496 1804 1731 1718 1648 906 1238 1603 1798 1621 1594 2681 2275 2118 1692 1446 1208 1051 1094 1821 2242 2346 2250 2001 1820 1631 1098 720 1019 1126
413 645 715 626 728 663 669 1110 1121 1512 1368 1331 1578 1644 2068 1953 2063 1796 1631 2059 1968 1810 1816 1615 2210 2277 1914 1819 1684 1511 1284 1950 2435 2261 2218 2307 2253 2176 2004 1794 1835 1804
2 230 290 480 564 563 715 1257 1498 1113 1251 1417 1342 1494 1593 1906 2228 1957 1816 1878 1874 1530 1346 1907 1565 1782 1731 1814 1892 1848 1669 1962 2392 2196 2116 2209 2446 2437 2504 2466 2174 2027
Wind_Speed
7 7 7 7 7 7 6 5 4 3 4 4 3 4 4 4 4 3 2 3 3 3 4 3 2 1 1 1 1 1 1 1 1 2 1 1 1 2 0 1 4 5
6 6 7 7 8 8 8 6 5 4 4 5 4 4 4 4 3 3 3 3 3 3 4 5 4 2 1 0 1 1 2 1 0 2 2 1 1 1 1 2 2 3
6 5 5 5 6 6 5 6 6 6 5 4 5 5 4 4 4 3 3 2 2 2 4 4 5 4 3 2 2 1 1 2 1 1 4 2 0 0 1 0 1 1
7 6 5 5 6 6 6 8 7 8 7 7 5 4 4 5 4 4 4 3 3 2 3 3 5 4 4 4 3 2 2 2 2 3 3 3 2 1 1 2 2 2
8 7 7 7 7 8 8 8 7 8 7 8 6 5 6 6 6 5 5 5 4 3 3 2 3 3 5 4 4 2 2 2 4 4 4 3 3 2 1 2 1 1
10 10 9 8 8 8 9 8 7 8 8 7 7 6 6 5 5 5 5 4 4 2 3 3 3 2 3 4 4 4 3 3 5 4 3 3 3 4 2 3 3 2
12 11 10 10 8 8 8 9 9 9 9 8 9 7 7 6 5 4 4 4 2 3 2 4 4 3 3 4 4 4 3 4 5 6 3 4 4 4 3 4 5 4
13 13 12 11 9 10 9 9 10 10 10 10 9 8 6 6 6 5 4 4 3 4 3 2 5 4 3 4 4 4 3 5 5 6 5 4 5 4 4 5 5 4
14 14 13 11 10 11 9 9 10 10 11 10 10 9 8 6 7 5 6 5 4 5 4 3 4 5 4 3 4 4 4 3 5 6 5 5 5 4 4 5 4 4
16 14 13 12 11 11 11 10 10 11 11 11 10 9 9 8 6 6 6 7 5 5 5 4 4 4 5 5 4 5 5 4 4 6 6 5 5 4 4 5 4 3
16 15 14 13 12 12 12 11 10 11 12 11 11 9 9 10 8 7 8 8 6 5 5 5 5 6 6 6 6 6 5 5 5 6 6 6 5 5 4 5 4 3
16 16 14 14 13 12 12 12 11 11 13 13 11 10 10 9 10 9 9 8 7 6 6 6 6 6 7 7 7 8 7 7 6 6 6 6 5 5 5 4 4 3
16 16 17 16 16 14 13 13 12 12 12 14 14 12 11 9 9 10 10 9 9 7 6 7 7 7 8 8 7 7 8 8 6 7 7 7 6 5 5 5 4 4
18 17 17 18 18 19 15 13 13 12 14 14 15 14 11 10 nan 10 12 11 10 8 7 7 9 8 9 9 9 8 8 8 7 6 7 8 7 6 6 6 6 6
19 17 19 19 19 20 18 16 15 15 15 15 14 13 14 12 11 10 12 12 11 10 9 8 9 10 10 11 11 10 9 9 9 7 6 7 7 7 7 7 7 8
22 20 20 20 20 19 20 19 17 16 15 14 14 13 15 16 14 12 11 12 12 12 11 10 9 10 13 14 14 13 12 10 10 9 8 7 8 7 7 8 7 7
19 18 19 19 20 20 20 20 18 18 17 18 17 15 15 17 16 13 12 11 12 13 12 12 11 11 17 19 17 15 13 13 11 11 11 8 8 8 7 7 8 8
20 17 16 17 18 19 19 20 20 19 18 18 17 16 18 15 14 14 14 12 12 12 13 13 12 12 nan 22 21 19 15 13 13 11 11 11 9 9 9 8 7 7
25 17 15 14 16 17 18 20 20 20 18 17 16 18 18 19 16 15 15 14 13 12 11 12 12 14 20 nan 23 22 19 15 13 12 11 10 10 10 9 9 10 9
30 24 19 17 16 16 17 18 18 18 18 19 20 20 20 19 16 16 17 17 16 14 13 12 12 17 21 23 23 23 21 19 13 11 10 10 10 9 9 10 10 9
34 32 29 24 19 17 18 18 18 18 18 20 21 22 21 20 19 18 19 18 17 16 15 13 13 17 23 23 24 24 22 21 15 11 nan nan 9 8 9 8 10 10
37 31 27 26 27 25 22 21 21 23 22 25 25 25 26 21 22 21 20 18 18 18 18 16 15 18 25 23 25 26 26 24 19 13 9 8 nan 10 9 10 9 9
40 37 33 31 30 29 31 34 36 34 32 32 34 35 33 32 30 28 29 23 20 20 20 19 19 22 29 27 27 29 31 27 22 18 14 10 10 11 11 9 9 10
41 39 39 38 34 36 41 41 35 33 31 32 32 33 29 26 33 32 33 34 30 24 21 21 21 25 31 29 29 33 32 29 26 22 17 13 12 12 12 12 11 10
39 39 41 41 42 42 40 40 35 34 35 35 33 30 25 23 25 27 27 25 29 29 35 29 22 27 32 29 30 32 30 30 28 24 19 15 14 13 13 14 14 14
nan 39 39 42 44 46 47 42 41 42 42 41 38 31 26 25 24 25 24 25 28 28 28 31 34 36 38 28 30 30 28 30 29 24 18 15 15 15 15 14 14 14
Wind_Direction
231 221 216 215 205 200 193 180 170 160 170 173 174 184 183 199 184 208 239 276 307 324 318 322 334 34 117 159 241 176 234 315 84 324 77 95 62 78 48 244 188 178
242 223 220 215 214 209 200 193 188 185 192 184 191 212 197 222 225 212 223 247 287 317 312 317 323 328 343 247 260 230 228 264 17 250 281 332 122 52 91 242 200 186
246 237 229 218 220 225 213 212 206 197 209 207 207 213 225 234 250 244 246 248 260 301 306 306 311 317 313 280 275 243 255 247 222 250 270 282 236 222 151 259 243 290
254 245 224 215 210 224 218 225 215 210 208 218 216 219 214 241 247 261 247 260 255 240 286 306 302 324 311 306 288 235 234 229 239 232 257 258 264 260 305 198 187 234
264 252 232 220 210 208 222 217 221 228 207 220 229 221 227 223 252 259 255 259 251 265 265 284 296 305 304 304 301 262 251 229 260 244 245 254 256 257 240 282 257 212
258 251 243 231 223 215 218 223 217 225 232 229 233 230 236 247 242 257 264 267 272 266 285 295 299 306 303 301 294 280 264 245 263 267 243 249 252 274 265 281 294 280
263 260 261 248 241 236 220 221 224 220 232 231 241 227 236 253 251 252 259 262 250 259 263 274 281 285 277 280 284 277 260 252 249 274 263 248 246 240 239 252 269 276
266 265 263 255 257 249 240 231 224 231 228 233 245 245 228 247 261 255 252 259 258 243 236 259 277 276 286 282 284 284 282 269 258 261 268 256 250 256 252 240 263 270
263 269 267 272 270 256 257 246 240 236 238 238 237 246 248 230 255 255 251 254 245 250 253 244 258 289 288 276 278 290 287 262 264 274 267 261 264 257 257 259 262 275
262 264 277 279 276 265 264 259 249 245 243 244 244 231 248 248 237 250 255 253 258 261 278 277 288 292 299 302 298 296 295 284 257 254 258 259 258 258 266 263 271 280
260 262 271 275 277 271 276 271 262 256 251 248 247 240 236 248 246 237 242 257 265 283 294 304 315 316 313 319 311 304 301 292 282 266 250 245 243 243 240 258 277 292
250 256 260 268 268 268 275 275 271 263 263 258 248 247 241 240 251 246 242 254 262 275 294 303 308 311 316 323 325 319 309 299 286 279 273 262 255 250 244 245 260 277
251 250 250 256 258 256 258 268 271 273 269 268 263 252 251 246 249 253 250 255 263 272 290 302 310 317 307 317 321 319 315 308 303 296 286 274 269 265 259 260 265 267
236 242 248 247 251 251 249 253 264 267 268 263 264 271 263 260 nan 256 258 258 266 275 281 287 299 307 308 309 314 316 315 315 310 299 294 285 276 274 267 259 262 267
242 245 247 249 251 253 255 252 249 254 258 263 263 266 268 264 257 252 261 266 269 272 280 285 293 300 297 303 306 313 311 317 316 313 301 285 284 281 277 267 260 265
238 238 243 250 254 255 257 258 254 252 257 264 266 266 262 263 259 257 259 271 274 278 280 282 284 284 292 309 307 300 309 308 306 305 304 293 282 274 276 283 279 264
227 235 240 246 252 254 258 259 259 258 256 253 258 258 257 261 263 265 266 265 278 281 286 285 285 285 299 304 306 309 304 303 300 297 302 302 303 291 281 279 281 288
207 224 238 245 249 253 256 258 258 258 255 258 261 266 259 261 268 268 262 266 267 278 288 287 286 292 nan 302 305 307 301 294 299 299 300 306 310 308 301 296 294 288
200 207 230 240 249 254 252 254 256 256 258 258 261 262 260 260 259 263 268 266 265 264 275 284 284 292 291 nan 303 305 308 298 290 296 304 308 311 317 314 304 300 298
213 202 207 226 235 241 248 252 254 255 254 254 251 251 253 255 261 262 260 261 262 260 256 258 262 279 291 293 297 301 304 296 293 296 301 306 309 316 313 319 315 306
226 218 207 206 216 229 237 242 245 246 247 244 245 248 249 248 247 251 253 255 259 260 255 254 253 265 283 291 292 295 298 289 290 296 nan nan 303 309 299 307 300 310
230 229 226 222 218 213 219 230 232 231 230 229 231 230 231 238 247 242 242 247 251 253 251 250 252 266 273 281 286 287 289 273 272 281 282 278 nan 289 290 286 292 296
227 228 226 222 228 233 231 226 224 225 225 231 227 222 219 219 220 224 227 228 233 242 243 241 244 257 271 275 278 281 275 266 269 270 268 267 266 271 278 291 298 297
224 225 224 223 223 225 232 242 239 245 250 252 250 249 242 231 238 233 227 218 214 218 229 236 234 247 267 271 276 278 276 269 267 267 266 264 260 264 269 274 282 302
228 226 224 226 227 230 236 243 241 240 238 241 249 256 259 260 263 266 267 265 253 235 221 211 222 235 259 265 272 277 274 264 265 262 262 262 260 257 259 259 259 269
nan 230 230 230 233 237 240 241 241 236 233 231 236 243 244 242 242 247 256 262 270 270 264 253 238 224 229 245 265 269 275 263 259 259 257 257 255 252 251 255 256 255